Zurück zum Katalog

STARLINK-37496

AktivKommunikationSSO
NORAD 69297·PAYLOAD·🇺🇸 United States

Gestartet May 30, 2026 von Vandenberg Space Force Base

Loading…

Nächste Überflüge (nächste 24 Stunden)

TLE

AktuellSource: CelesTrak SupGP

Epoche: Sep 15, 2026, 03:09 UTC

1 69297C 26119B   26258.13173611 -.00036970  00000+0 -11477-2 0  2584
2 69297  97.2821 283.0304 0001495  92.4110   3.5918 15.33457153    14

Verfolge STARLINK-37496 in Echtzeit mit AllMySat

Download on the App Store